Palau, PW

3:41 PM PWT on February 28, 2017 (GMT +0900)
Guam International | | Change Station

Elev 295 ft 13.48 °N, 144.80 °E | Updated 47 minutes ago

Overcast
Overcast
85 °F
Feels Like 92 °F
N
18
Wind Variable Wind from ENE

Today
High -- | Low -- °F
--% Chance of Precip.
Yesterday
High -- | Low -- °F
Precip. -- in
Pressure 29.81 in
Visibility 10.0 miles
Clouds Few 2200 ft
Heat Index 92 °F
Dew Point 74 °F
Humidity 69%
Rainfall 0.00 in
Snow Depth Not available.
6:15 AM 6:13 PM
Waxing Crescent, 3% visible
METAR PGUM 280554Z 07016KT 10SM FEW022 29/23 A2984 RMK AO2 SLP095 T02940233 10311 20283 56013
Pressure 29.81 in
Visibility 10.0 miles
Clouds Few 2200 ft
Heat Index 92 °F
Dew Point 74 °F
Humidity 69%
Rainfall 0.00 in
Snow Depth Not available.
6:15 AM 6:13 PM
Waxing Crescent, 3% visible
METAR PGUM 280554Z 07016KT 10SM FEW022 29/23 A2984 RMK AO2 SLP095 T02940233 10311 20283 56013

Get Your Daily Forecast Email!

Thanks for signing up!

Be on the lookout for a verification email in your inbox.

You'll start receiving the daily forecast at 8 AM.

×

10-Day Weather Forecast

Almanac

Astronomy

Feb. 28, 2017 Rise Set
Actual Time
Civil Twilight
Nautical Twilight
Astronomical Twilight
Moon
Length of Visible Light
Length of Day
Tomorrow will be .
, % of the Moon is Illuminated

Today's Extremes

State Highs State Lows

Community

WunderPhotos

Upload Photos

1,962,540 photos uploaded!

WunderBlog® & News

Nearby

Air Quality

  Air Quality AQ Index Pollutant
Not available.

Snow Depth

Station Depth Elevation

Earthquake Activity

City Distance Mag. Time & Date
Minimum magnitude displayed is 2.5.

Coastal Water Temperatures

Place Temperature

Stations

Nearby Weather Stations

Station Location Temp. Windchill Dew Point Humidity Wind Precip. Elev Updated Type
                   

Watches & Warnings

There are currently no watches in effect.